Location: Albany
(35.0000°S, 118.0000°E)
Time: 21:30:38
(UTC-05:00)

CZ-4B R/B - Visible Passes

Search period start: 21 November 2014 00:00
Search period end: 01 December 2014 00:00
Orbit: 492 x 674 km, 97.6° (Epoch: 20 November)

Date Brightness Start Highest point End Pass type
(mag) Time Alt. Az. Time Alt. Az. Time Alt. Az.
21 Nov 5.2 13:47:58 10° NE 13:51:35 27° ESE 13:55:23 10° SSE visible
22 Nov 4.9 13:53:39 10° NE 13:57:28 32° ESE 14:01:29 10° S visible
23 Nov 4.6 13:59:21 10° NE 14:03:20 37° ESE 14:07:32 10° S visible
24 Nov 4.3 14:05:05 10° NE 14:09:12 43° ESE 14:13:33 10° S visible
25 Nov 4.0 14:10:50 10° NNE 14:15:04 51° ESE 14:19:32 10° S visible
26 Nov 3.7 14:16:36 10° NNE 14:20:55 60° ESE 14:25:29 10° S visible
27 Nov 3.4 14:22:23 10° NNE 14:26:46 71° ESE 14:31:24 10° S visible
28 Nov 3.2 14:28:11 10° NNE 14:32:37 83° ESE 14:37:17 10° S visible
29 Nov 3.1 14:34:00 10° N 14:38:28 84° WNW 14:43:08 10° SSW visible
30 Nov 6.4 13:09:05 10° ESE 13:09:39 10° ESE 13:10:13 10° ESE visible
30 Nov 3.1 14:39:50 10° N 14:44:18 72° W 14:48:58 10° SSW visible
